Temp
10 10 10 10 10 10 10 10 10 10 10 10 10 10 10 10 10 10 11 10 10 10 10 10 10 10 9 9 9 9 9 9 9
10 10 10 10 10 10 10 10 10 10 10 10 10 10 10 10 10 11 11 10 10 10 10 9 9 9 9 9 9 9 9 9 8
10 10 10 10 10 10 10 10 10 10 10 10 10 10 10 10 10 11 10 10 10 10 10 10 9 9 9 9 9 9 9 8 8
10 10 10 10 10 10 10 10 10 10 10 10 10 10 10 10 10 10 10 10 10 10 10 10 10 9 9 9 9 9 9 8 8
10 10 10 10 10 10 10 10 10 10 10 10 10 10 10 10 10 10 10 10 10 10 10 10 10 9 9 9 9 9 9 8 8
10 10 10 10 10 10 10 10 10 10 10 10 10 10 10 10 10 10 10 10 10 10 10 10 10 9 9 9 9 9 9 9 8
10 10 10 10 10 10 10 10 10 10 10 10 10 10 10 10 10 9 10 10 10 10 10 10 10 9 9 9 9 9 9 8 8
10 10 10 10 10 10 10 10 10 10 10 10 10 10 10 10 9 9 10 10 10 9 9 9 9 9 9 9 9 9 8 8 8
10 10 10 10 10 10 10 10 10 10 10 10 10 10 10 10 9 9 9 9 9 9 9 9 9 9 9 9 8 8 8 8 8
9 10 10 10 10 10 10 10 10 10 10 10 10 10 10 9 9 9 9 9 9 9 9 9 9 8 8 8 8 8 8 8 8
9 9 10 10 9 10 9 9 9 10 10 9 10 9 9 9 9 9 9 9 9 8 8 8 8 8 8 8 8 8 8 7 7
8 9 9 9 9 9 10 10 10 9 9 9 9 9 9 9 9 9 9 8 8 8 8 8 8 8 8 8 8 8 7 7 7
8 8 9 9 9 9 9 9 9 9 9 9 9 9 9 9 9 8 8 8 8 8 8 8 8 8 7 7 7 7 7 7 6
8 8 9 9 9 9 9 9 9 9 9 9 9 9 9 9 8 8 8 8 8 8 8 8 7 7 7 6 6 6 6 6 6
7 8 9 9 9 9 9 9 9 9 9 9 9 9 9 8 8 8 8 8 8 7 7 7 7 7 6 6 6 6 6 6 6
7 8 8 8 8 8 8 9 9 9 9 9 9 9 8 8 8 8 8 7 7 7 7 6 6 6 7 6 7 6 6 6 6
7 7 8 8 8 8 8 8 9 9 8 8 8 8 8 8 8 8 7 7 7 6 6 6 6 7 7 6 6 6 6 6 6
7 7 7 7 7 8 8 8 8 8 8 8 7 8 8 8 7 7 7 6 6 6 6 6 7 6 7 6 6 6 6 6 6
6 6 7 7 7 7 7 7 7 7 7 8 7 6 7 7 7 6 6 6 6 6 6 6 6 7 7 6 6 6 6 6 6
6 6 6 6 7 7 7 7 7 7 7 6 7 6 6 6 6 5 6 6 6 6 6 6 7 7 7 6 6 6 6 6 6
Height
3159 3162 3164 3166 3169 3171 3173 3176 3178 3179 3181 3181 3183 3184 3184 3185 3187 3187 3188 3188 3188 3189 3189 3190 3189 3189 3188 3187 3186 3185 3184 3183 3182
3160 3162 3165 3167 3169 3172 3174 3176 3179 3181 3182 3183 3184 3185 3186 3187 3188 3189 3189 3189 3190 3190 3191 3191 3190 3190 3190 3189 3188 3187 3186 3185 3183
3160 3163 3165 3168 3170 3173 3175 3177 3180 3182 3183 3184 3185 3186 3187 3188 3190 3190 3191 3191 3191 3192 3192 3192 3192 3191 3191 3190 3190 3189 3187 3186 3185
3161 3163 3166 3168 3170 3173 3176 3178 3181 3183 3184 3185 3187 3187 3189 3190 3191 3191 3192 3192 3193 3193 3193 3193 3193 3193 3192 3191 3191 3190 3189 3188 3186
3161 3164 3166 3168 3170 3174 3177 3178 3181 3184 3185 3187 3188 3189 3190 3191 3192 3193 3193 3194 3194 3195 3195 3194 3194 3194 3193 3192 3191 3191 3190 3189 3187
3161 3164 3166 3168 3171 3174 3177 3179 3182 3184 3185 3187 3188 3190 3191 3192 3193 3194 3195 3195 3196 3196 3196 3196 3195 3195 3194 3194 3193 3192 3191 3190 3189
3161 3163 3166 3168 3171 3174 3177 3179 3181 3184 3186 3188 3190 3191 3192 3193 3194 3195 3196 3196 3197 3197 3197 3197 3197 3196 3196 3195 3194 3194 3193 3191 3190
3159 3162 3165 3168 3171 3174 3177 3179 3181 3183 3186 3188 3190 3192 3193 3194 3195 3196 3197 3197 3198 3198 3198 3198 3198 3198 3197 3196 3195 3195 3194 3193 3192
3158 3162 3165 3169 3171 3174 3176 3179 3181 3184 3186 3188 3190 3192 3193 3194 3196 3197 3198 3198 3199 3199 3199 3199 3199 3199 3198 3197 3197 3196 3196 3194 3193
3157 3161 3165 3168 3170 3173 3176 3178 3181 3184 3186 3188 3190 3191 3193 3194 3195 3197 3198 3199 3199 3200 3200 3200 3200 3200 3199 3199 3198 3197 3196 3196 3195
3156 3159 3163 3167 3170 3172 3175 3177 3180 3183 3186 3188 3189 3191 3193 3194 3195 3197 3198 3199 3199 3200 3200 3201 3201 3201 3200 3200 3199 3199 3197 3196 3195
3153 3157 3161 3166 3168 3171 3174 3176 3179 3182 3185 3187 3189 3191 3192 3194 3195 3196 3198 3199 3200 3200 3201 3201 3202 3201 3201 3201 3200 3199 3198 3197 3196
3150 3154 3158 3163 3166 3169 3172 3175 3178 3180 3183 3186 3188 3190 3192 3193 3194 3196 3197 3198 3200 3200 3201 3202 3202 3202 3201 3201 3200 3200 3199 3198 3197
3146 3151 3155 3160 3164 3167 3170 3173 3176 3179 3181 3184 3187 3189 3190 3192 3194 3195 3196 3198 3199 3200 3201 3202 3203 3202 3201 3201 3200 3200 3199 3198 3197
3142 3147 3152 3156 3161 3164 3167 3170 3174 3176 3179 3182 3185 3187 3189 3191 3193 3194 3196 3198 3199 3200 3201 3202 3202 3202 3201 3201 3200 3199 3198 3197 3197
3140 3144 3149 3154 3157 3162 3165 3168 3171 3174 3177 3180 3183 3185 3188 3190 3192 3194 3196 3197 3199 3200 3200 3201 3201 3201 3201 3200 3200 3199 3199 3198 3197
3137 3142 3146 3150 3154 3158 3162 3166 3170 3173 3176 3179 3181 3184 3187 3188 3191 3193 3195 3197 3198 3199 3199 3200 3200 3201 3201 3199 3199 3199 3198 3198 3196
3133 3138 3143 3147 3152 3156 3160 3164 3168 3171 3174 3176 3181 3182 3185 3188 3190 3192 3194 3196 3197 3198 3198 3199 3200 3200 3200 3199 3198 3198 3198 3197 3196
3129 3135 3139 3144 3148 3152 3157 3161 3165 3168 3172 3175 3178 3181 3185 3187 3190 3191 3193 3194 3196 3196 3197 3198 3198 3199 3199 3198 3198 3197 3197 3197 3196
3125 3130 3135 3139 3144 3148 3153 3157 3161 3165 3169 3173 3176 3179 3183 3186 3188 3190 3191 3193 3194 3195 3196 3197 3197 3198 3198 3198 3197 3197 3197 3197 3196
Wind_Speed
16 17 17 17 16 18 16 15 13 12 12 12 12 13 14 13 11 11 13 14 15 14 13 12 12 13 14 14 15 16 17 18 18
16 17 17 17 16 16 16 15 13 13 13 13 13 14 15 14 11 10 13 14 14 12 12 11 10 11 10 11 12 13 14 14 15
16 17 18 18 16 16 16 15 14 14 13 13 14 16 16 14 11 9 14 14 12 11 11 10 9 9 9 9 9 10 11 12 13
15 16 17 18 18 17 16 16 15 14 14 13 14 15 15 13 11 10 11 12 10 10 9 9 8 8 8 8 9 9 9 10 11
15 16 17 18 18 18 17 17 15 15 14 14 14 14 13 13 11 9 9 10 8 8 8 8 8 8 8 8 8 8 9 10 11
16 17 17 18 19 19 19 18 17 15 14 13 14 13 12 12 10 8 6 8 8 8 7 8 8 8 8 8 8 9 9 10 11
17 18 18 19 20 20 19 19 18 16 14 12 13 11 11 11 10 8 7 7 8 8 8 9 9 8 9 9 9 9 10 10 11
20 20 20 20 20 20 20 18 17 16 14 12 12 11 10 10 9 7 7 7 7 7 8 9 9 8 9 9 10 10 10 10 11
21 19 19 19 20 20 19 18 17 15 13 12 11 11 10 9 9 7 7 7 6 7 7 8 8 8 8 8 9 10 9 10 10
22 20 19 19 20 19 18 17 16 15 13 12 12 11 10 9 9 8 7 7 6 7 6 7 7 7 8 8 9 9 9 9 10
23 22 21 20 21 20 19 18 16 15 14 12 11 11 10 9 9 8 7 7 7 6 6 7 7 6 7 8 8 8 8 8 9
24 24 22 21 22 21 20 19 18 16 14 13 12 11 11 10 9 8 8 7 6 6 6 6 6 6 7 7 8 7 8 8 9
26 25 23 22 22 21 20 19 18 17 15 14 13 13 12 11 10 9 8 7 7 6 6 5 6 7 6 6 6 6 7 8 8
29 27 25 23 22 21 20 19 19 16 15 16 15 15 14 13 11 10 9 8 7 7 6 5 4 3 3 3 4 4 5 7 8
31 30 28 25 24 23 22 21 19 19 18 17 16 15 14 13 12 11 10 9 8 8 5 3 0 1 2 3 5 5 6 8 10
32 30 29 27 25 23 22 22 22 20 20 19 18 17 16 15 14 13 11 10 8 6 3 2 2 1 2 3 5 6 7 8 8
33 32 30 29 27 26 24 23 21 22 20 19 18 17 17 16 15 13 11 9 7 6 5 4 3 2 2 2 4 6 8 9 9
33 32 31 29 28 26 24 23 22 21 20 20 17 16 16 15 14 12 10 9 8 7 6 5 4 3 3 2 3 5 8 9 10
34 33 31 30 29 28 25 24 23 22 20 20 20 17 15 11 12 11 10 10 9 8 7 6 5 4 3 2 2 4 6 8 9
35 34 32 32 31 29 28 27 26 24 22 20 20 20 17 14 12 10 10 10 10 9 8 7 6 5 3 1 2 4 6 7 8
Wind_Direction
151 143 140 140 146 142 143 143 140 135 129 122 121 125 126 119 118 112 102 104 102 100 96 90 83 76 70 67 63 57 54 51 48
151 150 146 146 151 148 147 143 141 135 125 121 125 127 125 123 119 112 97 98 98 100 99 94 85 79 73 68 61 56 50 48 45
153 154 153 153 154 155 153 146 142 132 124 121 124 126 127 125 120 107 101 100 98 96 95 95 91 83 72 66 61 54 50 44 41
158 157 160 158 158 161 158 149 143 134 131 130 127 125 126 122 116 104 99 97 97 93 88 85 81 76 70 62 56 48 44 41 37
166 162 163 162 159 161 160 151 146 140 140 134 130 125 125 118 113 103 93 100 98 92 89 84 75 68 64 62 56 47 46 43 41
172 170 170 165 162 164 160 152 150 144 141 136 128 128 125 118 112 103 100 96 100 95 92 84 79 73 67 65 59 53 50 46 46
178 175 176 168 165 167 164 159 154 148 147 140 132 133 128 121 114 112 103 92 95 95 90 86 79 75 71 67 61 54 52 49 47
184 181 178 171 166 169 167 164 158 154 153 147 143 139 131 123 119 116 106 97 98 96 92 89 82 76 71 67 63 57 50 49 47
191 186 180 175 170 171 171 168 164 163 162 155 149 145 140 137 128 123 116 111 104 100 93 87 83 77 72 68 64 59 52 49 48
201 195 183 175 175 174 177 172 170 167 166 163 158 153 150 144 139 135 133 128 122 108 101 93 85 76 71 67 63 58 55 48 45
210 204 195 178 180 177 176 176 177 174 171 170 169 161 158 156 152 149 149 141 134 127 114 102 96 84 75 66 62 54 55 47 43
210 211 203 187 187 183 183 184 182 181 178 176 177 174 170 169 166 164 162 153 145 135 121 112 102 91 80 70 60 50 47 43 39
206 209 210 193 193 188 188 186 188 186 182 183 184 185 181 178 178 176 171 163 155 141 130 114 102 93 78 67 54 43 34 34 29
205 205 208 202 194 195 192 192 188 192 192 192 191 191 188 186 184 182 178 171 161 149 136 119 100 71 60 50 48 28 17 14 7
208 204 203 205 201 197 197 195 198 194 197 199 197 195 192 190 189 186 181 175 166 153 149 145 271 346 39 18 13 5 12 9 0
208 207 203 205 207 202 200 202 202 206 204 201 201 198 197 195 192 189 183 177 175 179 203 225 221 279 326 14 6 4 6 9 7
208 209 207 206 208 207 206 207 210 206 207 205 203 205 198 197 192 188 186 195 212 220 221 214 227 283 310 10 10 3 3 6 9
210 209 208 208 208 210 209 208 207 210 210 206 205 206 206 196 191 194 207 223 229 223 222 220 231 251 279 317 16 12 8 9 8
210 210 207 208 208 208 208 208 206 206 208 210 193 197 194 201 207 220 226 228 229 224 219 212 222 244 257 285 18 24 16 12 11
210 209 207 207 209 208 207 206 205 202 197 204 201 191 195 204 216 227 233 233 231 226 218 217 225 236 242 195 49 26 20 13 11